#timestamp,LO_Frequency,Hit,StdDev 
1510887615.5,286047004.1,P
1510887635.3,286046998.7,N
1510887655.2,286046995.5,N
1510887675.0,286046994.6,N
1510887675.9,286046994.6,N
1510887695.7,286046985.1,N
1510887715.6,286046980.8,N
1510887735.4,286046980.4,N
1510887755.2,286046972.8,N
1510887775.1,286046971.0,N
1510887776.0,286046971.0,N
1510887795.8,286046975.3,N
1510887815.6,286046971.1,N
1510887835.5,286046972.4,N
1510887855.3,286046969.8,N
1510887875.1,286046972.4,N
1510887895.9,286046966.9,N
1510887915.7,286046967.3,N
1510887935.5,286046969.4,N
1510887955.4,286046971.0,N
1510887975.2,286046973.6,N
1510887995.0,286046974.1,N
1510887995.9,286046974.1,N
1510888015.8,286046971.5,N
1510888035.6,286046976.3,N
1510888055.4,286046982.9,N
1510888075.2,286046983.4,N
1510888095.1,286046981.6,N
1510888096.0,286046981.6,N
1510888115.8,286046983.8,N
1510888135.6,286046983.6,N
1510888155.5,286046985.2,N
1510888175.3,286046986.1,N
1510888195.1,286046986.9,N
1510888215.9,286046993.7,N
1510888235.7,286046995.8,N
1510888255.5,286046999.4,N
1510888275.4,286047001.8,N
1510888295.2,286047004.5,N
1510888315.0,286047005.0,N
1510888315.9,286047005.0,N
1510888335.8,286047005.7,N
1510888355.6,286047008.8,N
1510888375.4,286047015.6,N
1510888395.2,286047018.2,N
1510888415.1,286047021.8,N
1510888416.0,286047021.8,N
1510888435.8,286047026.2,N
1510888455.6,286047024.3,N
1510888475.5,286047034.8,N
1510888495.3,286047038.1,N
1510888515.1,286047040.6,N
1510888535.9,286047048.2,N
1510888555.7,286047052.8,N
1510888575.5,286047055.2,N
1510888595.4,286047055.8,N
1510888615.2,286047055.8,N
1510888635.0,286047056.4,N
1510888635.9,286047056.4,N
1510888655.8,286047053.7,N
1510888675.6,286047050.5,N
1510888695.4,286047046.1,N
1510888715.3,286047046.0,N
1510888735.1,286047039.8,N
1510888736.0,286047039.8,N
1510888755.8,286047045.4,N
1510888775.7,286047042.7,N
1510888795.5,286047045.2,N
1510888815.3,286047050.8,N
1510888835.1,286047045.5,N
1510888855.9,286047049.3,Y
1510888875.7,286047009.5,P
1510888895.5,286047004.9,N
1510888915.4,286047003.0,N
1510888935.2,286046997.0,N
1510888955.0,286046990.7,N
1510888955.9,286046990.7,N
1510888975.8,286046986.0,N
1510888995.6,286046983.2,N
1510889015.4,286046980.8,N
1510889035.3,286046976.9,N
1510889055.1,286046970.0,N
1510889056.0,286046970.0,N
1510889075.8,286046970.6,N
1510889095.7,286046972.7,N
1510889115.5,286046969.6,N
1510889135.3,286046960.5,N
1510889155.2,286046952.0,N
1510889175.9,286046947.2,N
1510889195.7,286046948.1,N
1510889215.5,286046944.6,N
1510889235.4,286046941.2,N
1510889255.2,286046939.4,N
1510889275.0,286046943.0,N
1510889275.9,286046943.0,N
1510889295.8,286046939.1,N
1510889315.6,286046934.3,N
1510889335.4,286046931.1,N
1510889355.3,286046931.2,N
1510889375.1,286046936.0,N
1510889376.0,286046936.0,N
1510889395.8,286046944.2,N
1510889415.7,286046948.1,N
1510889435.5,286046946.1,N
1510889455.3,286046941.0,N
1510889475.2,286046938.3,Y
1510889495.9,286046980.3,P
1510889515.7,286046978.8,N
1510889535.6,286046975.1,N
1510889555.4,286046974.3,N
1510889575.2,286046975.3,N
1510889595.1,286046972.6,Y
1510889596.0,286046972.6,P
1510889615.8,286047002.3,P
1510889635.6,286046995.8,N
1510889655.5,286046988.6,N
1510889675.3,286046990.9,N
1510889695.1,286046991.3,N
1510889715.8,286046990.4,N
1510889735.7,286046990.5,N
1510889755.5,286046989.2,N
1510889775.3,286046986.1,N
1510889795.2,286046987.1,N
1510889815.0,286046983.6,N
1510889815.9,286046983.6,N
1510889835.7,286046985.6,N
1510889855.6,286046991.1,N
1510889875.4,286046997.6,N
1510889895.2,286046994.3,N
1510889915.1,286046999.6,N
1510889916.0,286046999.6,N
1510889935.8,286046992.1,N
1510889955.6,286046994.1,N
1510889975.5,286046988.7,N
1510889995.3,286046987.8,N
1510890015.1,286046990.9,N
1510890035.8,286046983.1,N
1510890055.7,286046979.2,Y
1510890075.5,286046986.5,P
1510890095.3,286046985.3,P
1510890115.2,286046984.6,P
1510890135.0,286046979.5,Y
1510890135.9,286046979.5,P
1510890155.8,286046989.8,N
1510890175.6,286046987.9,N
1510890195.4,286046987.2,Y
1510890215.3,286047008.6,P
1510890235.1,286047008.8,N
1510890236.0,286047008.8,N
1510890255.8,286047003.1,N
1510890275.7,286047000.5,N
1510890295.5,286046997.9,N
1510890315.3,286047001.1,N
1510890335.1,286047010.5,N
1510890355.9,286047007.5,N
1510890375.7,286046999.1,N
1510890395.5,286046994.1,N
1510890415.4,286046987.3,N
1510890435.2,286046987.2,N
1510890455.0,286046983.7,N
1510890455.9,286046983.7,N
1510890475.8,286046984.6,N
1510890495.6,286046986.4,N
1510890515.4,286046986.4,N
1510890535.3,286046988.1,N
1510890555.1,286046990.9,N
1510890556.0,286046990.9,N
1510890575.8,286046990.0,N
1510890595.7,286046993.1,N
1510890615.5,286046990.8,N
1510890635.3,286046989.8,N
1510890655.1,286046990.8,N
1510890675.9,286046989.6,N
1510890695.7,286046996.0,N
1510890715.5,286046992.6,N
1510890735.4,286047000.0,N
1510890755.2,286047006.4,N
1510890775.0,286047010.5,N
1510890775.9,286047010.5,N
1510890795.8,286047011.3,N
1510890815.6,286047017.1,N
1510890835.4,286047021.0,N
1510890855.3,286047028.2,N
1510890875.1,286047024.4,N
1510890876.0,286047024.4,N
1510890895.8,286047021.4,N
1510890915.7,286047016.9,N
1510890935.5,286047019.3,N
1510890955.3,286047019.3,N
1510890975.1,286047016.2,N
1510890995.9,286047014.4,N
1510891015.7,286047018.7,N
1510891035.5,286047019.1,N
1510891055.4,286047023.3,N
1510891075.2,286047019.6,N
1510891095.0,286047018.3,N
1510891095.9,286047018.3,N
1510891115.8,286047013.6,N
1510891135.6,286047013.2,N
1510891155.4,286047013.6,N
1510891175.3,286047012.8,N
1510891195.1,286047013.1,N
1510891196.0,286047013.1,N
